Starlink 31513

operational
NORAD ID: 59529 Int'l Des: 2024-073 Owner: SPXS Country: US Constellation: starlink
LEOCIRCULAR

About Starlink 31513

Description loading...

Live Position

Loading 3D Globe...

Upcoming Passes

Altitude History

Altitude vs Time

uPlot chart will show altitude changes over time

Two-Line Element Set

1 59529U 24073U 25312.60041860 -.00000481 00000-0 -79517-5 0 9993
2 59529 43.0031 278.6217 0001622 270.2064 89.8602 15.27589544 87691
Epoch: Nov 8, 2025 • Age: 43 hours

Current Status

Altitude 488.4 km
Velocity 7.62 km/s
Sub-Earth Point -24.20°S, 78.61°W
Launch Date Apr 17, 2024
Age 1.5 years
Type internet

Technical Details

Classification Payload
Mass 730.00 kg
Dry Mass 700.00 kg
Total Mass 730.00 kg
Length 0.30 m
Diameter 4.10 m
Span 29.00 m
Shape Box + pan
Manufacturer SPXS
Bus Type Starlink V2M
Phase Status In Orbit
Owner/State SPXS/US

Large Constellations

Loading constellations...